NUSAT-5 (MARYAM) (43204 NORAD) Tracking and Keplerian Element Data

This shows tracking and keplerian element data for the satellite.

Feedback or suggestion? Click here.




ElementValue
Catalog43204
NameNUSAT-5 (MARYAM)
Epoch Orbit25843
Epoch Day270.15235549
Epoch Year2022
RAAN53.5856
Inclination97.5489
Eccentricity0.0014352
Argument of Perigee51.1332
Mean Anonmoly52.1656
Mean Motion15.32954707
Decay Rate0.00013337
L11 43204U 18015K 22270.15235549 .00013337 00000+0 41994-3 0 9991
L22 43204 97.5489 53.5856 0014352 51.1332 52.1656 15.32954707258439

Live tracking and technical data element details for NUSAT-5 (MARYAM) (NORAD 43204). NUSAT-5 (MARYAM) can be tracked NOW for your location showing map with azimuth and elevation plus other details from your city location.

Track the satellite on the map from your city or location and see movement details for azimuth, elevation, latitude, longitude, range, height, and movement on the map or in text.







IsCatalogInMostPopularTable: catalog: 43204, numindb: 674
Update: records affected: 1



GetName: 43204 NUSAT-5 (MARYAM)

Hit Count: updated at: Wed, 28 Sep 2022 23:11:58 GMT